Austin Bergstrom, TX

3:19 AM CDT on May 25, 2017 (GMT -0500)
Austin Bergstrom International

Weather History for KAUS - November, 2013

Change the Weather History Date:

Sunday, November 17, 2013

  Actual Average Record
Temperature  
Mean Temperature 75 °F 58 °F  
Max Temperature 89 °F 71 °F 89 °F (2013)
Min Temperature 61 °F 45 °F 26 °F (2005)
Degree Days  
Heating Degree Days 0 8  
Month to date heating degree days 101 99  
Since 1 July heating degree days 137 150  
Cooling Degree Days 10 1  
Month to date cooling degree days 24 27  
Year to date cooling degree days 3027 2730  
Growing Degree Days 27 (Base 50)    
Moisture  
Dew Point 68 °F    
Average Humidity 64    
Maximum Humidity 93    
Minimum Humidity 34    
Precipitation  
Precipitation 0.00 in 0.10 in 1.57 in (2004)
Month to date precipitation 0.76 1.84  
Year to date precipitation 34.78 31.33  
Snow  
Snow 0.00 in - - ()
Month to date snowfall 0.0  
Since 1 July snowfall 0.0  
Since 1 September snowfall 0.0  
Snow Depth 0.00 in    
Sea Level Pressure  
Sea Level Pressure 29.83 in    
Wind  
Wind Speed 5 mph (South)    
Max Wind Speed 14 mph    
Max Gust Speed 20 mph    
Visibility 10 miles    
Events      
T = Trace of Precipitation, MM = Missing Value Source: NWS Daily Summary

Daily Weather History Graph

Daily Weather History Graph

Search for Another Location

Airport or City:

Trip Planner

Search our weather history database for the weather conditions in past years. The results will help you decide how hot, cold, wet, or windy it might be!

Date:

Astronomy

Nov. 17, 2013 Rise Set
Actual Time 6:57 AM CST 5:33 PM CST
Civil Twilight 6:32 AM CST 5:58 PM CST
Nautical Twilight 6:03 AM CST 6:27 PM CST
Astronomical Twilight 5:34 AM CST 6:56 PM CST
Moon 5:51 PM CST (11/17) 6:54 AM CST (11/17)
Length of Visible Light 11h 26m
Length of Day
10h 35m
Full, 100% of the Moon is Illuminated
Nov 17
Full
Nov 25
Last Quarter
Dec 2
New
Dec 9
First Quarter
Dec 17
Full

Hourly Weather History & Observations

Time (CST) Temp. Heat Index Dew Point Humidity Pressure Visibility Wind Dir Wind Speed Gust Speed Precip Events Conditions
12:32 AM 73.4 °F - 69.8 °F 88% 29.78 in 10.0 mi South 9.2 mph - N/A   Overcast
12:53 AM 73.9 °F - 71.1 °F 91% 29.77 in 10.0 mi South 6.9 mph - N/A   Overcast
1:53 AM 73.9 °F - 71.1 °F 91% 29.77 in 10.0 mi South 8.1 mph - N/A   Overcast
2:49 AM 73.4 °F - 69.8 °F 88% 29.78 in 10.0 mi South 8.1 mph - N/A   Scattered Clouds
2:53 AM 73.0 °F - 70.0 °F 90% 29.75 in 10.0 mi South 8.1 mph - N/A   Scattered Clouds
3:53 AM 73.0 °F - 70.0 °F 90% 29.78 in 10.0 mi South 3.5 mph - N/A   Overcast
4:53 AM 73.0 °F - 70.0 °F 90% 29.78 in 10.0 mi South 5.8 mph - N/A   Overcast
5:53 AM 73.0 °F - 70.0 °F 90% 29.78 in 10.0 mi South 9.2 mph - N/A   Mostly Cloudy
6:01 AM 73.4 °F - 69.8 °F 88% 29.81 in 10.0 mi South 8.1 mph - N/A   Mostly Cloudy
6:24 AM 71.6 °F - 69.8 °F 94% 29.81 in 10.0 mi South 9.2 mph - N/A   Scattered Clouds
6:45 AM 71.6 °F - 69.8 °F 94% 29.82 in 10.0 mi South 8.1 mph - N/A   Mostly Cloudy
6:53 AM 72.0 °F - 69.1 °F 91% 29.80 in 10.0 mi South 9.2 mph - N/A   Mostly Cloudy
7:53 AM 73.0 °F - 70.0 °F 90% 29.82 in 10.0 mi South 8.1 mph - N/A   Overcast
8:16 AM 73.4 °F - 69.8 °F 88% 29.85 in 10.0 mi South 9.2 mph - N/A   Overcast
8:35 AM 73.4 °F - 69.8 °F 88% 29.85 in 9.0 mi South 10.4 mph - N/A   Overcast
8:53 AM 75.0 °F - 70.0 °F 84% 29.84 in 9.0 mi SSW 11.5 mph - N/A   Overcast
9:14 AM 75.2 °F - 69.8 °F 83% 29.87 in 9.0 mi SSW 8.1 mph 18.4 mph N/A   Overcast
9:44 AM 75.2 °F - 69.8 °F 83% 29.88 in 9.0 mi SW 9.2 mph - N/A   Overcast
9:53 AM 75.9 °F - 69.1 °F 79% 29.86 in 10.0 mi SSW 11.5 mph - N/A   Overcast
10:46 AM 80.6 °F 83.9 °F 69.8 °F 70% 29.88 in 10.0 mi SSW 11.5 mph 18.4 mph N/A   Scattered Clouds
10:53 AM 80.1 °F 82.9 °F 69.1 °F 69% 29.86 in 10.0 mi SSW 10.4 mph 17.3 mph N/A   Scattered Clouds
11:53 AM 82.0 °F 85.5 °F 69.1 °F 65% 29.83 in 10.0 mi South 9.2 mph - N/A   Partly Cloudy
12:53 PM 84.9 °F 88.8 °F 69.1 °F 59% 29.81 in 10.0 mi South 11.5 mph - N/A   Partly Cloudy
1:53 PM 84.9 °F 88.2 °F 68.0 °F 57% 29.79 in 10.0 mi Calm Calm - N/A   Scattered Clouds
2:53 PM 86.0 °F 88.2 °F 66.0 °F 51% 29.78 in 10.0 mi Calm Calm - N/A   Scattered Clouds
3:53 PM 89.1 °F 88.0 °F 57.9 °F 35% 29.79 in 10.0 mi NW 3.5 mph - N/A   Scattered Clouds
4:53 PM 84.9 °F 83.9 °F 57.0 °F 38% 29.81 in 10.0 mi Calm Calm - N/A   Scattered Clouds
5:53 PM 77.0 °F - 66.0 °F 69% 29.83 in 10.0 mi SSW 3.5 mph - N/A   Clear
6:53 PM 71.1 °F - 66.9 °F 87% 29.86 in 10.0 mi Calm Calm - N/A   Clear
7:53 PM 66.9 °F - 64.9 °F 93% 29.88 in 9.0 mi Calm Calm - N/A   Clear
8:53 PM 66.0 °F - 64.9 °F 96% 29.91 in 9.0 mi Calm Calm - N/A   Clear
9:53 PM 66.0 °F - 64.0 °F 93% 29.91 in 9.0 mi Calm Calm - N/A   Clear
10:53 PM 64.0 °F - 62.1 °F 93% 29.93 in 9.0 mi Calm Calm - N/A   Clear
11:53 PM 64.0 °F - 62.1 °F 93% 29.94 in 9.0 mi Calm Calm - N/A   Clear